[[{"header":{"parameterUnit":"m.s-1","parameterCategory":1,"la1":30.2991,"la2":30.254,"lo1":-89.0895,"lo2":-89.0444,"dy":0.0017,"dx":0.0017,"nx":28,"ny":28,"refTime":"2025-02-11T03:00:00:Z","depth":0,"parameterNumber":2,"parameterNumberName":"U-component_of_WINDS"},"data":[0,0,0,0,0,0,0,0,0,0,0,0,0,0,0,0,0,0,0,0,0,0,0,0,0,0,0,0,0,0,0,0,0,0,0,0,0,0,0,0,0,0,0,0,0,0,0,0,0,0,0,0,0,0,0,0,0,0,-0.2536,-0.2536,0,-0.2508,-0.2507,-0.2507,-0.2477,-0.2477,-0.2477,-0.2476,-0.2449,-0.2449,-0.2448,0,0,0,0,0,0,0,0,0,0,0,0,0,-0.2568,-0.2568,-0.2537,-0.2536,-0.2536,-0.2508,-0.2507,-0.2507,-0.2477,-0.2477,-0.2476,-0.2476,-0.2449,-0.2449,-0.2448,0,0,0,0,0,0,0,0,0,0,0,0,0,-0.2548,-0.2567,-0.2537,-0.2518,-0.2516,-0.2508,-0.2507,-0.2507,-0.2478,-0.2477,-0.2476,-0.2476,-0.2449,-0.2449,-0.2448,-0.2458,0,0,-0.2447,-0.2447,0,0,0,0,0,0,0,0,-0.2549,-0.2547,-0.2521,-0.2519,-0.2517,-0.2495,-0.2508,-0.249,-0.2478,-0.2492,-0.2476,-0.2475,-0.2465,-0.2463,-0.2459,-0.2456,-0.2455,-0.2447,-0.2446,-0.2446,-0.2446,0,0,0,0,0,0,0,-0.2551,-0.2548,-0.2525,-0.252,-0.2518,-0.2511,-0.2508,-0.2505,-0.2483,-0.2491,-0.2489,-0.2485,-0.2464,-0.246,-0.2458,-0.2455,-0.2447,-0.2446,-0.2446,-0.2446,-0.2457,-0.2457,0,0,0,0,0,0,-0.2555,-0.255,-0.2526,-0.2524,-0.2532,-0.2511,-0.2507,-0.2503,-0.2482,-0.2479,-0.2486,-0.2484,-0.2461,-0.2459,-0.2457,-0.2466,-0.2446,-0.2446,-0.2445,-0.2456,-0.2457,-0.2458,0,0,0,0,0,0,-0.2556,-0.2553,-0.2527,-0.2536,-0.2532,-0.2511,-0.2507,-0.2503,-0.2499,-0.2479,-0.2475,-0.2486,-0.246,-0.2458,-0.2457,-0.2465,-0.2445,-0.2445,-0.2456,-0.2456,-0.2457,-0.2484,0,0,0,0,0,0,-0.2557,-0.2553,-0.2556,-0.2537,-0.2532,-0.2527,-0.2507,-0.2503,-0.2497,-0.2495,-0.2478,-0.2474,-0.246,-0.2458,-0.2457,-0.2463,-0.2445,-0.2455,-0.2456,-0.2457,-0.2482,-0.2485,-0.2488,0,0,0,0,0,-0.2558,-0.2566,-0.2557,-0.2554,-0.2535,-0.2528,-0.2525,-0.2508,-0.2498,-0.2501,-0.2488,-0.2475,-0.2464,-0.2458,-0.2457,-0.2463,-0.2454,-0.2456,-0.2457,-0.2481,-0.2485,-0.2488,0,0,0,0,0,0,-0.2588,-0.2563,-0.2552,-0.2554,-0.2543,-0.2523,-0.2526,-0.2513,-0.2505,-0.2503,-0.2483,-0.2479,-0.248,-0.2472,-0.2466,-0.2471,-0.2457,-0.2458,-0.2476,-0.248,-0.2483,-0.2484,-0.2444,0,0,0,0,0,-0.2594,-0.259,-0.2568,-0.2572,-0.2567,-0.2547,-0.2543,-0.2531,-0.2519,-0.2515,-0.2502,-0.2491,-0.2486,-0.2482,-0.2476,-0.2481,-0.2476,-0.2485,-0.2488,-0.249,-0.2491,-0.2492,-0.2495,-0.2462,-0.2462,-0.2462,0,0,-0.2608,-0.2594,-0.2592,-0.2577,-0.2567,-0.2563,-0.2544,-0.254,-0.2537,-0.2514,-0.2512,-0.2503,-0.249,-0.2491,-0.2492,-0.2484,-0.25,-0.2492,-0.2494,-0.2494,-0.2494,-0.2497,-0.25,-0.2463,-0.2463,-0.2463,0,0,-0.2631,-0.262,-0.2621,-0.2611,-0.2596,-0.2583,-0.2583,-0.2565,-0.2557,-0.2555,-0.2537,-0.2534,-0.2524,-0.2515,-0.251,-0.2529,-0.2516,-0.2528,-0.2543,-0.2545,-0.2547,-0.255,-0.2556,-0.2558,-0.2529,-0.2529,-0.2529,0,-0.2651,-0.2643,-0.2624,-0.2621,-0.2615,-0.2593,-0.2594,-0.2586,-0.257,-0.2566,-0.2558,-0.2545,-0.2535,-0.2534,-0.2539,-0.2535,-0.2535,-0.2529,-0.2548,-0.255,-0.2552,-0.2558,-0.256,-0.253,-0.253,-0.253,-0.253,0,-0.2667,-0.2662,-0.2665,-0.2648,-0.2643,-0.2642,-0.2623,-0.262,-0.2608,-0.2596,-0.2593,-0.258,-0.2571,-0.257,-0.2559,-0.2567,-0.2563,-0.2552,-0.2538,-0.2557,-0.2562,-0.2564,-0.2532,-0.2532,-0.2532,-0.2531,0,0,-0.2708,-0.268,-0.2681,-0.2673,-0.2655,-0.2651,-0.265,-0.2639,-0.2636,-0.2626,-0.2624,-0.2616,-0.2606,-0.26,-0.2587,-0.2589,-0.2603,-0.2578,-0.2577,-0.2582,-0.2611,-0.2618,-0.2621,-0.2595,-0.2595,-0.2596,-0.2612,0,-0.2727,-0.2721,-0.2704,-0.2704,-0.2699,-0.2678,-0.2676,-0.2665,-0.2654,-0.2648,-0.2636,-0.2631,-0.2618,-0.2614,-0.2614,-0.2602,-0.2609,-0.26,-0.2593,-0.2593,-0.2596,-0.2624,-0.2632,-0.2648,-0.2614,-0.2614,-0.2614,0,-0.2748,-0.2738,-0.2737,-0.2718,-0.2715,-0.2714,-0.2702,-0.2698,-0.2685,-0.2676,-0.2669,-0.2655,-0.2652,-0.264,-0.2636,-0.263,-0.2626,-0.262,-0.262,-0.2618,-0.2604,-0.2622,-0.2652,-0.2654,-0.2617,-0.2617,-0.2617,0,-0.2777,-0.2763,-0.276,-0.2754,-0.2732,-0.2732,-0.2723,-0.2709,-0.2703,-0.2694,-0.269,-0.2681,-0.2676,-0.2669,-0.2653,-0.2645,-0.2651,-0.2637,-0.2643,-0.2644,-0.2645,-0.2645,-0.2674,-0.2644,-0.2644,-0.2644,-0.2644,0,-0.2799,-0.2799,-0.2773,-0.2771,-0.2771,-0.2751,-0.2751,-0.274,-0.2728,-0.2724,-0.2706,-0.2703,-0.2683,-0.2677,-0.2665,-0.2663,-0.2661,-0.2654,-0.2651,-0.2655,-0.2656,-0.2652,-0.265,-0.2644,-0.2644,-0.2644,-0.2644,0,-0.2831,-0.2813,-0.2809,-0.2788,-0.2782,-0.2783,-0.2765,-0.2763,-0.275,-0.2746,-0.2744,-0.2724,-0.2717,-0.27,-0.2689,-0.2681,-0.2682,-0.2676,-0.2686,-0.2683,-0.269,-0.269,-0.2717,-0.272,-0.2689,-0.2689,-0.269,0,-0.2846,-0.2845,-0.2824,-0.2819,-0.2811,-0.2804,-0.2798,-0.2779,-0.2773,-0.2758,-0.2757,-0.2749,-0.274,-0.273,-0.2715,-0.2706,-0.27,-0.271,-0.2698,-0.2702,-0.2698,-0.2698,-0.2698,-0.2712,-0.2713,-0.2713,-0.2713,0,-0.2874,-0.2865,-0.2857,-0.2845,-0.2838,-0.2828,-0.2817,-0.2815,-0.2793,-0.2788,-0.278,-0.2773,-0.2761,-0.2752,-0.2741,-0.2732,-0.2719,-0.2717,-0.2718,-0.2722,-0.2727,-0.2723,-0.2692,-0.2717,-0.2716,-0.2716,-0.2716,-0.2716,-0.2897,-0.2895,-0.288,-0.2871,-0.286,-0.285,-0.2847,-0.2833,-0.2826,-0.2813,-0.2803,-0.2795,-0.2782,-0.2765,-0.2757,-0.2751,-0.2745,-0.2746,-0.2747,-0.2747,-0.2749,-0.2729,-0.275,-0.2749,-0.2749,-0.2749,-0.2749,0,-0.2924,-0.2913,-0.2904,-0.2889,-0.2882,-0.287,-0.2857,-0.2852,-0.2845,-0.2833,-0.2825,-0.2815,-0.2807,-0.2791,-0.2781,-0.2779,-0.2773,-0.2777,-0.2777,-0.2775,-0.2756,-0.2755,-0.2782,-0.2782,-0.2782,-0.2782,-0.2782,-0.2782,-0.2937,-0.2933,-0.2922,-0.2912,-0.2901,-0.2892,-0.2886,-0.2877,-0.2867,-0.2857,-0.2849,-0.2838,-0.2825,-0.2814,-0.2805,-0.2801,-0.2797,-0.2803,-0.2797,-0.2779,-0.2776,-0.2773,-0.2773,-0.2803,-0.2803,-0.2817,-0.2817,-0.2817]},{"header":{"parameterUnit":"m.s-1","parameterCategory":1,"la1":30.2991,"la2":30.254,"lo1":-89.0895,"lo2":-89.0444,"dy":0.0017,"dx":0.0017,"nx":28,"ny":28,"refTime":"2025-02-11T03:00:00:Z","depth":0,"parameterNumber":3,"parameterNumberName":"V-component_of_WINDS"},"data":[0,0,0,0,0,0,0,0,0,0,0,0,0,0,0,0,0,0,0,0,0,0,0,0,0,0,0,0,0,0,0,0,0,0,0,0,0,0,0,0,0,0,0,0,0,0,0,0,0,0,0,0,0,0,0,0,0,0,3.1659,3.1658,0,3.1651,3.1651,3.165,3.1665,3.1666,3.1666,3.1667,3.1656,3.1655,3.1654,0,0,0,0,0,0,0,0,0,0,0,0,0,3.1686,3.1685,3.1659,3.1658,3.1658,3.1651,3.1651,3.165,3.1665,3.1666,3.1666,3.1667,3.1656,3.1655,3.1654,0,0,0,0,0,0,0,0,0,0,0,0,0,3.1675,3.1685,3.1659,3.1665,3.1665,3.1651,3.1651,3.165,3.1665,3.1666,3.1667,3.1667,3.1656,3.1655,3.1654,3.1632,0,0,3.165,3.165,0,0,0,0,0,0,0,0,3.1676,3.1674,3.1664,3.1664,3.1665,3.166,3.1656,3.1644,3.1665,3.1665,3.1667,3.1668,3.1656,3.1655,3.1652,3.1631,3.1631,3.165,3.165,3.1649,3.1649,0,0,0,0,0,0,0,3.1677,3.1675,3.1655,3.1664,3.1664,3.1668,3.1667,3.1654,3.1656,3.1665,3.1666,3.1665,3.1657,3.1653,3.1652,3.1631,3.165,3.1649,3.1649,3.1648,3.1595,3.1595,0,0,0,0,0,0,3.1677,3.1675,3.1656,3.1655,3.1673,3.1667,3.1666,3.1661,3.1657,3.1657,3.1665,3.1666,3.1654,3.1653,3.1651,3.1628,3.1649,3.1648,3.1647,3.1596,3.1595,3.1594,0,0,0,0,0,0,3.1677,3.1675,3.1656,3.1666,3.1663,3.1666,3.1659,3.166,3.1656,3.1656,3.1657,3.166,3.1655,3.1653,3.1638,3.1627,3.1648,3.1646,3.1597,3.1596,3.1595,3.1578,0,0,0,0,0,0,3.1678,3.1675,3.1666,3.1665,3.1663,3.1642,3.1659,3.1659,3.1655,3.1656,3.1652,3.1652,3.1655,3.1639,3.1636,3.1626,3.1646,3.1598,3.1596,3.1595,3.158,3.1577,3.1574,0,0,0,0,0,3.1679,3.1661,3.1666,3.1663,3.1652,3.1641,3.164,3.1645,3.1654,3.1646,3.1646,3.1653,3.1629,3.1637,3.1634,3.1624,3.1598,3.1597,3.1595,3.1581,3.1577,3.1574,0,0,0,0,0,0,3.1658,3.166,3.1666,3.1647,3.1644,3.1644,3.1633,3.164,3.1634,3.1635,3.1641,3.164,3.1624,3.1622,3.1632,3.1604,3.1615,3.1613,3.1605,3.1602,3.1599,3.16,3.1645,0,0,0,0,0,3.1652,3.1644,3.1646,3.1628,3.1627,3.1631,3.1626,3.163,3.1627,3.1625,3.1625,3.1621,3.1613,3.1607,3.16,3.158,3.158,3.1571,3.1568,3.1566,3.1564,3.1556,3.1553,3.1589,3.1589,3.1589,0,0,3.1637,3.1638,3.1632,3.1624,3.1623,3.1614,3.1629,3.1618,3.1613,3.1623,3.161,3.1609,3.1606,3.1589,3.1581,3.1587,3.1555,3.1564,3.1562,3.1561,3.1554,3.1551,3.1548,3.1588,3.1588,3.1588,0,0,3.1608,3.1607,3.1594,3.1593,3.1591,3.1594,3.1591,3.1591,3.1591,3.1578,3.1587,3.158,3.1565,3.1564,3.156,3.1534,3.1541,3.1532,3.1517,3.151,3.1507,3.1504,3.1497,3.1494,3.153,3.153,3.153,0,3.159,3.1578,3.1586,3.1576,3.1573,3.1585,3.1573,3.1571,3.1566,3.1564,3.1571,3.1556,3.1554,3.1538,3.1532,3.1529,3.1526,3.1532,3.1507,3.1504,3.1502,3.1495,3.1492,3.1529,3.1529,3.1529,3.1529,0,3.1558,3.155,3.1539,3.1537,3.1533,3.1522,3.1528,3.1523,3.1529,3.1532,3.1519,3.1518,3.1512,3.1509,3.1513,3.1495,3.1499,3.1506,3.1517,3.1498,3.1491,3.1488,3.1527,3.1528,3.1528,3.1528,0,0,3.1512,3.1517,3.1514,3.1514,3.1515,3.1508,3.1499,3.1494,3.1491,3.1488,3.1481,3.1471,3.1479,3.1475,3.148,3.1473,3.1456,3.1482,3.1482,3.1478,3.1438,3.1433,3.1429,3.146,3.146,3.1459,3.1439,0,3.1484,3.1469,3.1477,3.146,3.1454,3.1467,3.1459,3.1459,3.1462,3.1457,3.146,3.1453,3.1463,3.1462,3.1456,3.1459,3.1448,3.146,3.1454,3.1454,3.1455,3.1426,3.1419,3.14,3.1436,3.1436,3.1435,0,3.1449,3.1448,3.1431,3.1436,3.1434,3.1426,3.1425,3.142,3.1421,3.1423,3.1422,3.1429,3.1421,3.1433,3.1423,3.1431,3.143,3.1431,3.1431,3.143,3.1443,3.1426,3.1393,3.1391,3.1431,3.1431,3.1432,0,3.142,3.1414,3.1404,3.1403,3.1408,3.1403,3.1405,3.1407,3.1405,3.1404,3.1403,3.14,3.1398,3.1396,3.1403,3.1411,3.1393,3.1405,3.1396,3.1396,3.1391,3.1391,3.1359,3.1389,3.1389,3.1389,3.1389,0,3.1388,3.1378,3.1391,3.1385,3.1375,3.1385,3.1374,3.1377,3.1379,3.1374,3.1385,3.138,3.1389,3.1386,3.1391,3.1383,3.1382,3.1385,3.1386,3.1384,3.1384,3.1383,3.1385,3.1388,3.1388,3.1388,3.1389,0,3.1353,3.1362,3.1352,3.1359,3.1361,3.1353,3.1359,3.1354,3.1359,3.1353,3.1352,3.136,3.1357,3.1364,3.1361,3.1365,3.1354,3.1357,3.1354,3.1355,3.1346,3.1347,3.1312,3.1309,3.134,3.134,3.134,0,3.1333,3.1326,3.1333,3.1331,3.1333,3.133,3.1329,3.1339,3.1338,3.134,3.1335,3.1334,3.1333,3.1327,3.1333,3.1331,3.1335,3.1324,3.1335,3.1334,3.1337,3.1338,3.1338,3.1321,3.132,3.132,3.132,0,3.1296,3.1302,3.13,3.1301,3.13,3.1301,3.1302,3.13,3.1312,3.131,3.1308,3.1307,3.1306,3.1305,3.1305,3.1307,3.1316,3.1317,3.1315,3.1312,3.1311,3.1313,3.1348,3.1317,3.1317,3.1317,3.1318,3.1318,3.1269,3.1264,3.127,3.1269,3.1271,3.1273,3.127,3.1276,3.1275,3.1275,3.1282,3.1279,3.1283,3.1285,3.1287,3.1285,3.1291,3.1287,3.1287,3.1286,3.1285,3.1312,3.1285,3.1285,3.1285,3.1285,3.1286,0,3.1234,3.1239,3.1238,3.1241,3.1241,3.1251,3.1254,3.1253,3.125,3.1254,3.1254,3.1253,3.1252,3.1259,3.126,3.1257,3.1262,3.1257,3.1258,3.1259,3.1279,3.1282,3.1254,3.1254,3.1254,3.1254,3.1254,3.1254,3.1216,3.121,3.1216,3.1212,3.1217,3.1215,3.1216,3.1219,3.1222,3.1221,3.1221,3.1226,3.1232,3.1233,3.1234,3.1236,3.1236,3.1231,3.1235,3.1254,3.1257,3.126,3.1262,3.1231,3.1231,3.1214,3.1214,3.1214]}]]